[[{"header":{"parameterUnit":"m.s-1","parameterCategory":1,"la1":30.2991,"la2":30.254,"lo1":-89.0895,"lo2":-89.0444,"dy":0.0017,"dx":0.0017,"nx":28,"ny":28,"refTime":"2024-07-11T03:00:00:Z","depth":0,"parameterNumber":2,"parameterNumberName":"U-component_of_WINDS"},"data":[0,0,0,0,0,0,0,0,0,0,0,0,0,0,0,0,0,0,0,0,0,0,0,0,0,0,0,0,0,0,0,0,0,0,0,0,0,0,0,0,0,0,0,0,0,0,0,0,0,0,0,0,0,0,0,0,0,0,-0.0226,-0.0226,0,-0.0239,-0.0239,-0.0239,-0.023,-0.0229,-0.0229,-0.0228,-0.0243,-0.0244,-0.0244,0,0,0,0,0,0,0,0,0,0,0,0,0,-0.0193,-0.0194,-0.0226,-0.0226,-0.0226,-0.0239,-0.0239,-0.0239,-0.023,-0.0229,-0.0229,-0.0228,-0.0243,-0.0243,-0.0244,0,0,0,0,0,0,0,0,0,0,0,0,0,-0.0207,-0.0194,-0.0226,-0.0223,-0.0223,-0.0239,-0.0239,-0.0239,-0.023,-0.0229,-0.0229,-0.0228,-0.0242,-0.0243,-0.0244,-0.0264,0,0,-0.0248,-0.0249,0,0,0,0,0,0,0,0,-0.0206,-0.0208,-0.0223,-0.0223,-0.0223,-0.0232,-0.0233,-0.0248,-0.023,-0.0227,-0.0228,-0.0228,-0.024,-0.0241,-0.0245,-0.0265,-0.0266,-0.0248,-0.0249,-0.0249,-0.025,0,0,0,0,0,0,0,-0.0205,-0.0208,-0.0231,-0.0223,-0.0223,-0.0221,-0.0222,-0.0236,-0.0237,-0.0227,-0.0227,-0.0228,-0.024,-0.0244,-0.0245,-0.0266,-0.0248,-0.0249,-0.025,-0.025,-0.0303,-0.0303,0,0,0,0,0,0,-0.0204,-0.0207,-0.023,-0.0231,-0.0213,-0.0222,-0.0224,-0.023,-0.0237,-0.0237,-0.0229,-0.0228,-0.0242,-0.0244,-0.0246,-0.0269,-0.0249,-0.025,-0.0251,-0.0302,-0.0303,-0.0303,0,0,0,0,0,0,-0.0204,-0.0207,-0.023,-0.0219,-0.0222,-0.0223,-0.023,-0.023,-0.0235,-0.0238,-0.0238,-0.0233,-0.0242,-0.0244,-0.026,-0.027,-0.0251,-0.0252,-0.0301,-0.0302,-0.0303,-0.0317,0,0,0,0,0,0,-0.0203,-0.0206,-0.0214,-0.0219,-0.0222,-0.0244,-0.0231,-0.0231,-0.0236,-0.0235,-0.0242,-0.0242,-0.0241,-0.0258,-0.0261,-0.0271,-0.0253,-0.03,-0.0301,-0.0303,-0.0316,-0.0318,-0.0321,0,0,0,0,0,-0.0202,-0.0217,-0.0214,-0.0217,-0.0232,-0.0244,-0.0246,-0.0245,-0.0237,-0.0245,-0.0247,-0.0242,-0.0268,-0.026,-0.0263,-0.0273,-0.03,-0.0301,-0.0303,-0.0314,-0.0318,-0.032,0,0,0,0,0,0,-0.0214,-0.0218,-0.0215,-0.0232,-0.0238,-0.0243,-0.0252,-0.0248,-0.0256,-0.0255,-0.0253,-0.0254,-0.0271,-0.0274,-0.0264,-0.0293,-0.0283,-0.0285,-0.0291,-0.0294,-0.0296,-0.0295,-0.0254,0,0,0,0,0,-0.0218,-0.0228,-0.0231,-0.0247,-0.025,-0.025,-0.0256,-0.0254,-0.026,-0.0262,-0.0266,-0.0272,-0.0281,-0.0287,-0.0296,-0.0316,-0.0317,-0.0324,-0.0327,-0.0329,-0.0331,-0.0342,-0.0345,-0.0309,-0.0308,-0.0308,0,0,-0.0228,-0.0232,-0.0238,-0.0249,-0.0253,-0.0264,-0.0253,-0.0264,-0.0272,-0.0264,-0.0279,-0.0282,-0.0288,-0.0306,-0.0314,-0.0309,-0.0341,-0.0331,-0.0333,-0.0334,-0.0344,-0.0347,-0.035,-0.031,-0.0309,-0.0309,0,0,-0.0252,-0.0255,-0.0268,-0.0273,-0.0279,-0.0279,-0.0282,-0.0287,-0.0289,-0.0303,-0.0298,-0.0307,-0.0324,-0.0328,-0.0333,-0.0358,-0.0354,-0.0361,-0.0374,-0.0384,-0.0387,-0.039,-0.0399,-0.0402,-0.0363,-0.0363,-0.0363,0,-0.0263,-0.0278,-0.0276,-0.0288,-0.0293,-0.0286,-0.0299,-0.0304,-0.0313,-0.0316,-0.0311,-0.0331,-0.0335,-0.0353,-0.0359,-0.0363,-0.0367,-0.036,-0.0387,-0.0389,-0.0392,-0.04,-0.0404,-0.0364,-0.0363,-0.0363,-0.0363,0,-0.0292,-0.0303,-0.0313,-0.0321,-0.0328,-0.034,-0.034,-0.0346,-0.0344,-0.0345,-0.036,-0.0364,-0.0374,-0.0378,-0.0376,-0.0396,-0.0393,-0.0387,-0.0377,-0.0396,-0.0404,-0.0407,-0.0365,-0.0364,-0.0364,-0.0364,0,0,-0.0324,-0.0331,-0.0335,-0.0338,-0.0344,-0.0353,-0.0365,-0.0374,-0.038,-0.0386,-0.0396,-0.041,-0.0404,-0.0409,-0.0408,-0.0417,-0.0436,-0.041,-0.041,-0.0415,-0.0459,-0.0464,-0.0467,-0.0433,-0.0434,-0.0434,-0.0458,0,-0.0348,-0.0369,-0.0367,-0.0387,-0.0397,-0.0391,-0.0401,-0.0406,-0.0407,-0.0416,-0.0417,-0.0427,-0.0419,-0.0422,-0.043,-0.0432,-0.0445,-0.043,-0.0443,-0.0443,-0.0442,-0.0471,-0.0477,-0.0499,-0.0461,-0.0462,-0.0462,0,-0.0379,-0.0386,-0.0407,-0.0411,-0.0415,-0.0425,-0.0433,-0.0441,-0.0447,-0.0447,-0.0452,-0.0449,-0.0461,-0.045,-0.0468,-0.0457,-0.0462,-0.0464,-0.0465,-0.0466,-0.0454,-0.0474,-0.0506,-0.051,-0.0467,-0.0467,-0.0466,0,-0.04,-0.0415,-0.043,-0.0433,-0.0438,-0.0445,-0.0448,-0.0453,-0.0458,-0.0465,-0.0469,-0.0477,-0.0482,-0.0489,-0.0488,-0.048,-0.0505,-0.0494,-0.0506,-0.0506,-0.0512,-0.0512,-0.0546,-0.0515,-0.0515,-0.0514,-0.0514,0,-0.0428,-0.0441,-0.0439,-0.0448,-0.0463,-0.046,-0.0475,-0.0477,-0.0481,-0.049,-0.0485,-0.0494,-0.0492,-0.0501,-0.05,-0.0514,-0.0516,-0.0517,-0.0517,-0.0518,-0.0518,-0.0521,-0.052,-0.0515,-0.0515,-0.0515,-0.0515,0,-0.0454,-0.0454,-0.0469,-0.0473,-0.0474,-0.0485,-0.0488,-0.0496,-0.0497,-0.0509,-0.0511,-0.0512,-0.0522,-0.0522,-0.0533,-0.0533,-0.055,-0.0548,-0.0548,-0.0548,-0.056,-0.0559,-0.0598,-0.0603,-0.0568,-0.0568,-0.0569,0,-0.0472,-0.0482,-0.0486,-0.0492,-0.0495,-0.0504,-0.051,-0.0508,-0.0514,-0.052,-0.0528,-0.0538,-0.0545,-0.0561,-0.0563,-0.0572,-0.057,-0.0583,-0.0571,-0.0572,-0.057,-0.057,-0.0571,-0.0585,-0.0586,-0.0586,-0.0586,0,-0.0503,-0.0502,-0.051,-0.0518,-0.0525,-0.0531,-0.0537,-0.0542,-0.054,-0.0547,-0.0557,-0.0563,-0.0574,-0.0584,-0.0592,-0.0595,-0.059,-0.059,-0.0593,-0.0594,-0.0594,-0.0595,-0.0555,-0.0589,-0.0589,-0.0589,-0.0589,-0.0588,-0.0526,-0.0534,-0.0539,-0.0548,-0.0552,-0.0557,-0.0565,-0.0567,-0.0575,-0.0584,-0.0582,-0.0593,-0.0598,-0.0609,-0.0612,-0.0621,-0.0617,-0.0621,-0.0622,-0.0624,-0.0625,-0.0593,-0.0623,-0.0623,-0.0622,-0.0622,-0.0622,0,-0.0557,-0.0559,-0.0568,-0.0576,-0.0583,-0.0578,-0.0583,-0.059,-0.06,-0.0605,-0.0612,-0.0624,-0.0633,-0.0635,-0.0644,-0.065,-0.0648,-0.0653,-0.0652,-0.0653,-0.0629,-0.0625,-0.0654,-0.0654,-0.0654,-0.0654,-0.0654,-0.0654,-0.0574,-0.0588,-0.0588,-0.0604,-0.0606,-0.0617,-0.0621,-0.0626,-0.063,-0.0643,-0.065,-0.0651,-0.0655,-0.0664,-0.0672,-0.0672,-0.0676,-0.0681,-0.0681,-0.0658,-0.0655,-0.0652,-0.0648,-0.0682,-0.0682,-0.0704,-0.0705,-0.0705]},{"header":{"parameterUnit":"m.s-1","parameterCategory":1,"la1":30.2991,"la2":30.254,"lo1":-89.0895,"lo2":-89.0444,"dy":0.0017,"dx":0.0017,"nx":28,"ny":28,"refTime":"2024-07-11T03:00:00:Z","depth":0,"parameterNumber":3,"parameterNumberName":"V-component_of_WINDS"},"data":[0,0,0,0,0,0,0,0,0,0,0,0,0,0,0,0,0,0,0,0,0,0,0,0,0,0,0,0,0,0,0,0,0,0,0,0,0,0,0,0,0,0,0,0,0,0,0,0,0,0,0,0,0,0,0,0,0,0,-1.6725,-1.6726,0,-1.6817,-1.6818,-1.6819,-1.6816,-1.6815,-1.6814,-1.6813,-1.6908,-1.6912,-1.6916,0,0,0,0,0,0,0,0,0,0,0,0,0,-1.6547,-1.6551,-1.6725,-1.6726,-1.6727,-1.6817,-1.6818,-1.682,-1.6817,-1.6815,-1.6813,-1.6812,-1.6907,-1.6911,-1.6916,0,0,0,0,0,0,0,0,0,0,0,0,0,-1.6631,-1.6552,-1.6725,-1.6737,-1.6739,-1.6817,-1.6818,-1.682,-1.6817,-1.6815,-1.6813,-1.6811,-1.6906,-1.6911,-1.6917,-1.699,0,0,-1.6934,-1.6936,0,0,0,0,0,0,0,0,-1.6626,-1.6637,-1.6734,-1.6736,-1.6738,-1.6803,-1.6791,-1.6877,-1.6817,-1.6787,-1.6813,-1.681,-1.6875,-1.6883,-1.6905,-1.6994,-1.6998,-1.6934,-1.6938,-1.694,-1.6942,0,0,0,0,0,0,0,-1.662,-1.6633,-1.6762,-1.6735,-1.6738,-1.6738,-1.6747,-1.6807,-1.6841,-1.679,-1.679,-1.6801,-1.6876,-1.6899,-1.6907,-1.7,-1.6934,-1.6939,-1.6942,-1.6945,-1.7152,-1.7155,0,0,0,0,0,0,-1.6612,-1.6628,-1.6759,-1.6764,-1.6676,-1.6742,-1.6753,-1.6784,-1.684,-1.6847,-1.6802,-1.68,-1.6891,-1.69,-1.691,-1.6998,-1.694,-1.6945,-1.6948,-1.715,-1.7153,-1.7155,0,0,0,0,0,0,-1.6608,-1.6623,-1.6755,-1.6696,-1.6713,-1.6747,-1.6783,-1.6787,-1.681,-1.6849,-1.6856,-1.682,-1.6889,-1.6902,-1.6969,-1.7002,-1.6948,-1.6953,-1.7148,-1.7151,-1.7154,-1.7176,0,0,0,0,0,0,-1.6603,-1.6622,-1.665,-1.6697,-1.6716,-1.6813,-1.6785,-1.679,-1.682,-1.6818,-1.6868,-1.6874,-1.6889,-1.6961,-1.6975,-1.7008,-1.6957,-1.7145,-1.7149,-1.7153,-1.7173,-1.718,-1.7186,0,0,0,0,0,-1.6596,-1.6653,-1.6651,-1.6667,-1.6752,-1.6814,-1.6826,-1.6841,-1.6823,-1.6851,-1.6876,-1.6872,-1.6996,-1.6968,-1.6984,-1.7019,-1.7143,-1.7148,-1.7153,-1.717,-1.7178,-1.7185,0,0,0,0,0,0,-1.661,-1.6659,-1.6658,-1.6732,-1.6769,-1.6814,-1.685,-1.685,-1.6894,-1.689,-1.6908,-1.6919,-1.6987,-1.701,-1.6978,-1.7092,-1.7067,-1.7075,-1.7075,-1.7083,-1.7089,-1.7082,-1.6962,0,0,0,0,0,-1.6621,-1.6667,-1.6708,-1.6769,-1.6788,-1.6816,-1.6844,-1.6852,-1.6892,-1.6908,-1.6938,-1.6976,-1.7024,-1.7055,-1.7101,-1.7176,-1.7186,-1.7208,-1.7215,-1.722,-1.7227,-1.7267,-1.7277,-1.7171,-1.7171,-1.7171,0,0,-1.6645,-1.6678,-1.6706,-1.6773,-1.6802,-1.685,-1.6829,-1.6881,-1.6916,-1.6916,-1.6981,-1.7004,-1.7048,-1.712,-1.7153,-1.7141,-1.7258,-1.7226,-1.723,-1.7234,-1.7273,-1.7283,-1.7292,-1.7174,-1.7174,-1.7173,0,0,-1.6713,-1.6743,-1.6796,-1.6826,-1.6871,-1.6889,-1.6902,-1.6947,-1.6962,-1.7028,-1.7028,-1.7071,-1.7153,-1.7184,-1.7211,-1.7289,-1.7287,-1.7304,-1.7338,-1.7377,-1.7386,-1.7393,-1.742,-1.743,-1.7311,-1.7311,-1.7311,0,-1.6737,-1.6809,-1.6824,-1.6875,-1.6904,-1.6905,-1.6959,-1.6988,-1.7046,-1.7066,-1.7052,-1.7154,-1.7184,-1.7262,-1.7281,-1.7303,-1.7318,-1.7298,-1.7383,-1.7391,-1.7398,-1.7424,-1.7435,-1.7312,-1.7312,-1.7312,-1.7312,0,-1.6836,-1.6885,-1.6923,-1.6978,-1.7012,-1.7064,-1.7087,-1.7119,-1.7125,-1.7145,-1.7211,-1.7247,-1.7299,-1.7319,-1.7325,-1.7398,-1.7389,-1.7379,-1.7354,-1.7409,-1.7434,-1.7445,-1.7315,-1.7314,-1.7314,-1.7313,0,0,-1.6915,-1.6977,-1.699,-1.7015,-1.7064,-1.7103,-1.7156,-1.7207,-1.7233,-1.7274,-1.7318,-1.7386,-1.7377,-1.7407,-1.7417,-1.7452,-1.7511,-1.7438,-1.7439,-1.7449,-1.7592,-1.7599,-1.761,-1.751,-1.7512,-1.7514,-1.7588,0,-1.6987,-1.708,-1.7095,-1.7176,-1.7222,-1.7223,-1.7269,-1.7304,-1.7324,-1.7365,-1.7387,-1.7435,-1.742,-1.7438,-1.7472,-1.7497,-1.754,-1.7492,-1.7551,-1.7553,-1.7539,-1.7624,-1.7631,-1.7699,-1.7598,-1.76,-1.7601,0,-1.7085,-1.7126,-1.7211,-1.7254,-1.7274,-1.7314,-1.7362,-1.7402,-1.7442,-1.7453,-1.7487,-1.7492,-1.7547,-1.752,-1.7595,-1.7561,-1.7587,-1.7602,-1.7605,-1.7611,-1.758,-1.7631,-1.7722,-1.7732,-1.7617,-1.7615,-1.7614,0,-1.7132,-1.721,-1.7271,-1.7292,-1.7343,-1.7372,-1.7394,-1.7432,-1.7462,-1.7503,-1.7523,-1.757,-1.7596,-1.7633,-1.7651,-1.763,-1.7725,-1.77,-1.7736,-1.7736,-1.7756,-1.7754,-1.7851,-1.7773,-1.7773,-1.7773,-1.7773,0,-1.7212,-1.7264,-1.7293,-1.733,-1.7389,-1.7405,-1.7462,-1.7485,-1.7518,-1.756,-1.7565,-1.7604,-1.7626,-1.7668,-1.7683,-1.7743,-1.7755,-1.7765,-1.7769,-1.7765,-1.7763,-1.7781,-1.7777,-1.7775,-1.7775,-1.7774,-1.7774,0,-1.7275,-1.7297,-1.7363,-1.7406,-1.7418,-1.7459,-1.7495,-1.7532,-1.7551,-1.7603,-1.7617,-1.7647,-1.7697,-1.7719,-1.7781,-1.7791,-1.7859,-1.7859,-1.7845,-1.7846,-1.7881,-1.7877,-1.7992,-1.8008,-1.792,-1.7921,-1.7922,0,-1.7324,-1.7364,-1.741,-1.7438,-1.7461,-1.7507,-1.7536,-1.7554,-1.7585,-1.7633,-1.7663,-1.7713,-1.7754,-1.7834,-1.7862,-1.7909,-1.791,-1.7947,-1.7917,-1.7912,-1.791,-1.7907,-1.7911,-1.7953,-1.7953,-1.7954,-1.7955,0,-1.7408,-1.7416,-1.7459,-1.7505,-1.754,-1.7577,-1.7613,-1.7636,-1.766,-1.7694,-1.7745,-1.7776,-1.7839,-1.7889,-1.7937,-1.7961,-1.7962,-1.7964,-1.7975,-1.7971,-1.7961,-1.7966,-1.7859,-1.7961,-1.7961,-1.796,-1.796,-1.7959,-1.7465,-1.75,-1.7538,-1.7585,-1.7614,-1.7648,-1.7684,-1.7707,-1.7749,-1.7801,-1.7809,-1.7863,-1.7902,-1.7967,-1.7993,-1.8035,-1.8026,-1.8042,-1.8046,-1.8049,-1.8051,-1.7954,-1.8044,-1.8044,-1.8044,-1.8044,-1.8044,0,-1.7549,-1.7573,-1.7616,-1.7666,-1.7703,-1.77,-1.774,-1.7771,-1.7818,-1.7853,-1.7893,-1.7951,-1.7999,-1.803,-1.8078,-1.8106,-1.8108,-1.8118,-1.8116,-1.8122,-1.8057,-1.8042,-1.8116,-1.8116,-1.8116,-1.8116,-1.8116,-1.8116,-1.7596,-1.7655,-1.7668,-1.7741,-1.7766,-1.7818,-1.7841,-1.7872,-1.79,-1.7964,-1.8004,-1.8024,-1.8057,-1.8108,-1.8151,-1.8159,-1.8177,-1.8187,-1.8195,-1.8134,-1.8126,-1.8119,-1.8105,-1.8191,-1.8191,-1.8256,-1.8256,-1.8257]}]]